GW3467 Weather Reports


time (UTC)temp
C
wind
direction
speed
KPH
gust
KPH
rain 1hr
cm
rain 24hr
cm
rain mn
cm
humidity
%
barometer
mb
20260505130252 15 196 1.6 3.2 0.00 0.03 0.03 87 1009.2
20260505124742 15 206 1.6 3.2 0.00 0.03 0.03 88 1008.9
20260505124239 14 239 3.2 4.8 0.00 0.03 0.03 88 1008.7
20260505123729 14 191 0.0 3.2 0.00 0.03 0.03 89 1008.3
20260505123226 14 214 0.0 4.8 0.18 0.03 0.03 88 1008.2
20260505122723 14 200 1.6 3.2 0.18 0.03 0.03 87 1008.1
20260505122220 14 227 3.2 12.9 0.00 0.00 0.00 86 1008.4
20260505121716 14 210 1.6 4.8 0.00 0.00 0.00 86 1007.6
20260505121213 15 198 3.2 16.1 0.00 0.00 0.00 85 1007.4
20260505120710 15 158 4.8 6.4 0.00 0.00 0.00 82 1007.3
20260505120205 15 199 3.2 12.9 0.00 0.00 0.00 80 1007.2
20260505115659 15 169 6.4 6.4 0.00 0.00 0.00 81 1007.2
20260505115157 15 144 6.4 14.5 0.00 0.00 0.00 81 1007.3
20260505114654 15 190 6.4 12.9 0.00 0.00 0.00 81 1007.0
20260505114150 15 171 4.8 9.7 0.00 0.00 0.00 81 1007.3
20260505113646 15 196 3.2 14.5 0.00 0.00 0.00 80 1007.6
20260505113143 15 174 1.6 11.3 0.00 0.00 0.00 79 1008.1
20260505112634 15 222 3.2 6.4 0.00 0.00 0.00 80 1008.0
20260505112132 15 171 6.4 11.3 0.00 0.00 0.00 79 1008.0
20260505111631 15 187 1.6 9.7 0.00 0.00 0.00 77 1008.1
20260505111127 15 222 9.7 22.5 0.00 0.00 0.00 77 1007.8
20260505110624 15 206 1.6 9.7 0.00 0.00 0.00 77 1007.8
20260505110121 16 207 4.8 9.7 0.00 0.00 0.00 76 1008.0
20260505102057 16 267 8.0 12.9 0.00 0.00 0.00 74 1008.2
20260505101555 16 176 3.2 9.7 0.00 0.00 0.00 74 1008.3
20260505101051 16 244 3.2 6.4 0.00 0.00 0.00 73 1008.1
20260505100548 16 229 4.8 9.7 0.00 0.00 0.00 73 1008.1
20260505100045 16 197 3.2 12.9 0.00 0.00 0.00 73 1008.2
20260505095541 16 261 6.4 9.7 0.00 0.00 0.00 73 1008.0
20260505095038 16 228 4.8 9.7 0.00 0.00 0.00 72 1007.8
20260505094534 16 263 4.8 4.8 0.00 0.00 0.00 72 1007.9
20260505094030 16 198 3.2 9.7 0.00 0.00 0.00 72 1007.6
20260505093527 16 199 4.8 9.7 0.00 0.00 0.00 72 1007.6
20260505093024 16 256 9.7 11.3 0.00 0.00 0.00 71 1007.6
20260505092522 16 233 9.7 12.9 0.00 0.00 0.00 71 1007.6
20260505092020 16 244 8.0 11.3 0.00 0.00 0.00 71 1007.6
20260505091516 17 220 8.0 17.7 0.00 0.00 0.00 70 1007.4
20260505091014 17 260 11.3 17.7 0.00 0.00 0.00 70 1007.6
20260505090512 17 211 8.0 17.7 0.00 0.00 0.00 70 1007.5
20260505090010 17 256 8.0 14.5 0.00 0.00 0.00 69 1007.3
20260505085508 17 206 4.8 12.9 0.00 0.00 0.00 69 1007.4
20260505085006 17 211 6.4 14.5 0.00 0.00 0.00 69 1007.3
20260505084504 17 204 9.7 17.7 0.00 0.00 0.00 69 1007.2
20260505084001 17 219 4.8 11.3 0.00 0.00 0.00 69 1007.1
20260505083458 17 230 11.3 14.5 0.00 0.00 0.00 68 1007.2
20260505082954 17 237 14.5 25.7 0.00 0.00 0.00 66 1007.1
20260505082450 17 248 6.4 12.9 0.00 0.00 0.00 70 1007.1
20260505081947 17 218 6.4 11.3 0.00 0.00 0.00 71 1007.1
20260505081444 17 231 8.0 14.5 0.00 0.00 0.00 72 1006.8
20260505080941 17 182 8.0 16.1 0.00 0.00 0.00 72 1006.8
20260505080437 17 212 6.4 14.5 0.00 0.00 0.00 69 1006.8
20260505075932 17 215 9.7 16.1 0.00 0.00 0.00 69 1006.8
20260505075429 18 212 9.7 24.1 0.00 0.00 0.00 67 1006.9
20260505074927 18 206 11.3 17.7 0.00 0.00 0.00 65 1006.4
20260505074424 18 204 9.7 14.5 0.00 0.00 0.00 66 1006.5
20260505073921 18 221 6.4 16.1 0.00 0.00 0.00 67 1006.7
20260505073419 18 229 6.4 12.9 0.00 0.00 0.00 66 1006.9
20260505072916 18 236 8.0 37.0 0.00 0.00 0.00 65 1006.8
20260505072412 18 243 6.4 14.5 0.00 0.00 0.00 63 1006.5
20260505071908 18 207 6.4 22.5 0.00 0.00 0.00 62 1006.3
20260505071404 18 275 9.7 12.9 0.00 0.00 0.00 62 1006.3
20260505070903 18 242 9.7 14.5 0.00 0.00 0.00 62 1006.3
20260505070358 18 203 1.6 9.7 0.00 0.00 0.00 62 1006.2
20260505065854 19 216 11.3 16.1 0.00 0.00 0.00 61 1006.4
20260505065351 19 207 6.4 14.5 0.00 0.00 0.00 62 1006.3
20260505064848 18 205 9.7 17.7 0.00 0.00 0.00 62 1006.4
20260505064345 19 165 4.8 14.5 0.00 0.00 0.00 62 1006.3
20260505063843 19 185 4.8 17.7 0.00 0.00 0.00 62 1006.2
20260505063339 19 189 6.4 16.1 0.00 0.00 0.00 62 1006.3
20260505062836 18 187 6.4 16.1 0.00 0.00 0.00 62 1006.3
20260505062333 19 174 9.7 22.5 0.00 0.00 0.00 62 1006.3
20260505061830 18 246 6.4 16.1 0.00 0.00 0.00 64 1006.4
20260505061328 18 184 1.6 6.4 0.00 0.00 0.00 64 1006.4
20260505060825 18 188 3.2 11.3 0.00 0.00 0.00 64 1006.5
20260505060322 18 176 3.2 11.3 0.00 0.00 0.00 65 1006.6
20260505055817 18 159 3.2 6.4 0.00 0.00 0.00 66 1006.5
20260505055314 18 229 9.7 17.7 0.00 0.00 0.00 66 1006.6
20260505054812 17 170 3.2 6.4 0.00 0.00 0.00 68 1006.7
20260505054309 17 220 6.4 9.7 0.00 0.00 0.00 70 1006.6
20260505053807 17 163 1.6 3.2 0.00 0.00 0.00 70 1006.9
20260505053304 17 186 1.6 4.8 0.00 0.00 0.00 71 1006.9
20260505052800 17 158 6.4 12.9 0.00 0.00 0.00 71 1006.8
20260505052257 17 179 3.2 4.8 0.00 0.00 0.00 72 1007.1
20260505051754 17 175 3.2 4.8 0.00 0.00 0.00 72 1007.0
20260505051252 17 198 4.8 9.7 0.00 0.00 0.00 72 1007.1
20260505050750 17 185 4.8 11.3 0.00 0.00 0.00 72 1007.1
20260505050248 17 177 3.2 6.4 0.00 0.00 0.00 72 1007.2
20260505041718 18 171 8.0 11.3 0.00 0.00 0.00 70 1007.3
20260505041215 18 127 1.6 12.9 0.00 0.00 0.00 70 1007.2
20260505040712 18 192 3.2 9.7 0.00 0.00 0.00 71 1007.2
20260505040209 18 227 3.2 6.4 0.00 0.00 0.00 71 1007.0
20260505035706 18 189 3.2 3.2 0.00 0.00 0.00 71 1007.1
20260505035202 18 187 6.4 9.7 0.00 0.00 0.00 70 1007.2
20260505034659 18 220 1.6 3.2 0.00 0.00 0.00 71 1007.0
20260505034156 18 197 3.2 11.3 0.00 0.00 0.00 71 1007.2
20260505033652 18 210 6.4 12.9 0.00 0.00 0.00 70 1007.1
20260505033151 18 225 3.2 11.3 0.00 0.00 0.00 70 1007.3
20260505032649 18 172 3.2 9.7 0.00 0.00 0.00 71 1007.3
20260505032144 18 183 0.0 6.4 0.00 0.00 0.00 71 1007.2
20260505031642 18 178 1.6 6.4 0.00 0.00 0.00 71 1007.2
20260505031137 18 178 1.6 3.2 0.00 0.00 0.00 71 1007.1
20260505030629 18 148 1.6 9.7 0.00 0.00 0.00 71 1007.0
20260505030125 18 183 3.2 11.3 0.00 0.00 0.00 70 1007.2
20260505025621 18 215 0.0 4.8 0.00 0.00 0.00 71 1007.1
20260505025120 17 195 1.6 9.7 0.00 0.00 0.00 71 1007.3
20260505024617 17 178 1.6 4.8 0.00 0.00 0.00 72 1007.0
20260505024114 17 174 0.0 4.8 0.00 0.00 0.00 72 1007.3
20260505023612 17 192 1.6 4.8 0.00 0.00 0.00 72 1007.1
20260505023109 17 178 1.6 4.8 0.00 0.00 0.00 73 1007.2
20260505022606 17 158 3.2 4.8 0.00 0.00 0.00 73 1007.1
20260505022103 17 166 0.0 1.6 0.00 0.00 0.00 74 1007.2
20260505021600 17 186 0.0 3.2 0.00 0.00 0.00 72 1007.3
20260505021057 17 195 0.0 3.2 0.00 0.00 0.00 72 1007.1
20260505020556 17 163 0.0 1.6 0.00 0.00 0.00 72 1007.1
20260505020054 17 152 1.6 6.4 0.00 0.00 0.00 72 1006.9
20260505015550 17 175 1.6 9.7 0.00 0.00 0.00 72 1006.9
20260505015047 17 155 4.8 4.8 0.00 0.00 0.00 73 1007.0
20260505014544 17 158 0.0 0.0 0.00 0.00 0.00 73 1007.1
20260505014041 17 177 0.0 4.8 0.00 0.00 0.00 72 1007.0
20260505013538 17 211 3.2 3.2 0.00 0.00 0.00 72 1007.0
20260505013036 17 170 0.0 3.2 0.00 0.00 0.00 73 1007.0
20260505012534 17 156 1.6 3.2 0.00 0.00 0.00 74 1007.0
20260505012030 17 178 1.6 4.8 0.00 0.00 0.00 73 1007.1
20260505011526 17 196 3.2 3.2 0.00 0.00 0.00 73 1006.8
20260505011023 17 124 3.2 3.2 0.00 0.00 0.00 72 1006.9
20260505010519 17 164 3.2 3.2 0.00 0.00 0.00 73 1006.8
20260505010016 17 156 1.6 4.8 0.00 0.00 0.00 72 1006.9
20260505005512 17 174 3.2 4.8 0.00 0.00 0.00 72 1006.9
20260505005010 17 104 1.6 3.2 0.00 0.00 0.00 72 1007.0
20260505004506 17 163 1.6 3.2 0.00 0.00 0.00 71 1006.9
20260505004003 17 177 0.0 1.6 0.00 0.00 0.00 71 1006.9
20260505003500 17 184 0.0 3.2 0.00 0.00 0.00 71 1006.7
20260505002956 18 174 0.0 1.6 0.00 0.00 0.00 71 1006.6
20260505002452 18 166 1.6 3.2 0.00 0.00 0.00 70 1006.7
20260505001951 18 194 3.2 6.4 0.00 0.00 0.00 69 1006.9
20260505001448 18 194 1.6 3.2 0.00 0.00 0.00 69 1006.8
20260505000945 18 189 0.0 4.8 0.00 0.00 0.00 68 1006.7
20260505000443 18 183 3.2 6.4 0.00 0.00 0.00 67 1006.7
20260504235940 18 178 0.0 3.2 0.00 0.00 0.00 67 1006.6
20260504235437 18 206 4.8 4.8 0.00 0.00 0.00 65 1006.7
20260504234933 18 116 3.2 9.7 0.00 0.00 0.00 65 1006.7
20260504234431 18 187 3.2 12.9 0.00 0.00 0.00 64 1006.8
20260504233927 19 179 4.8 6.4 0.00 0.00 0.00 63 1006.9
20260504233423 19 205 6.4 11.3 0.00 0.00 0.00 63 1006.8
20260504232920 19 237 9.7 17.7 0.00 0.00 0.00 62 1006.7
20260504232417 19 173 6.4 14.5 0.00 0.00 0.00 63 1007.0
20260504231914 19 237 8.0 12.9 0.00 0.00 0.00 61 1007.0
20260504231410 20 169 1.6 11.3 0.00 0.00 0.00 61 1006.8
20260504230907 20 185 3.2 17.7 0.00 0.00 0.00 60 1007.1
20260504230404 20 196 9.7 14.5 0.00 0.00 0.00 59 1007.2
20260504225903 20 184 8.0 11.3 0.00 0.00 0.00 58 1007.2
20260504225359 20 143 6.4 14.5 0.00 0.00 0.00 59 1007.2
20260504224856 20 192 6.4 16.1 0.00 0.00 0.00 58 1007.1
20260504224353 20 233 9.7 20.9 0.00 0.00 0.00 57 1007.1
20260504223850 20 183 6.4 9.7 0.00 0.00 0.00 57 1006.9
20260504223345 20 164 3.2 12.9 0.00 0.00 0.00 56 1007.0
20260504222842 20 180 6.4 17.7 0.00 0.00 0.00 56 1007.1
20260504222339 21 212 11.3 29.0 0.00 0.00 0.00 54 1007.1
20260504221837 21 221 9.7 17.7 0.00 0.00 0.00 53 1007.0
20260504221334 22 196 12.9 25.7 0.00 0.00 0.00 52 1007.1
20260504220831 22 265 11.3 17.7 0.00 0.00 0.00 53 1007.2
20260504220327 22 203 4.8 9.7 0.00 0.00 0.00 54 1006.9
20260504215825 22 218 11.3 24.1 0.00 0.00 0.00 54 1007.0
20260504215321 22 216 12.9 24.1 0.00 0.00 0.00 52 1006.9
20260504214817 21 207 4.8 12.9 0.00 0.00 0.00 57 1007.0
20260504214314 21 259 9.7 12.9 0.00 0.00 0.00 57 1006.8
20260504213811 21 206 8.0 16.1 0.00 0.00 0.00 56 1006.9
20260504213307 20 220 4.8 17.7 0.00 0.00 0.00 59 1007.0
20260504212804 21 244 11.3 20.9 0.00 0.00 0.00 56 1006.9
20260504212300 21 207 14.5 20.9 0.00 0.00 0.00 57 1006.9
20260504211758 21 265 8.0 20.9 0.00 0.00 0.00 58 1007.2
20260504211254 21 246 8.0 27.4 0.00 0.00 0.00 56 1007.3
20260504210752 21 223 11.3 27.4 0.00 0.00 0.00 57 1007.5
20260504210249 21 131 6.4 29.0 0.00 0.00 0.00 58 1007.4
20260504205746 22 238 22.5 33.8 0.00 0.00 0.00 55 1007.1
20260504205243 22 265 16.1 24.1 0.00 0.00 0.00 56 1007.3
20260504204741 21 204 9.7 24.1 0.00 0.00 0.00 55 1007.4
20260504204239 22 243 8.0 14.5 0.00 0.00 0.00 57 1007.5
20260504203738 21 233 9.7 20.9 0.00 0.00 0.00 57 1007.3
20260504203235 22 222 17.7 29.0 0.00 0.00 0.00 55 1007.3
20260504202735 21 216 9.7 17.7 0.00 0.00 0.00 56 1007.6
20260504202233 22 213 9.7 22.5 0.00 0.00 0.00 56 1007.5
20260504201730 22 222 17.7 29.0 0.00 0.00 0.00 56 1007.4
20260504201227 22 196 6.4 20.9 0.00 0.00 0.00 58 1007.4
20260504200725 21 193 11.3 30.6 0.00 0.00 0.00 57 1007.6
20260504200220 21 210 3.2 17.7 0.00 0.00 0.00 57 1007.6
20260504195717 22 262 9.7 22.5 0.00 0.00 0.00 56 1007.6
20260504195213 22 233 4.8 20.9 0.00 0.00 0.00 57 1007.6
20260504194710 22 231 9.7 12.9 0.00 0.00 0.00 54 1007.6
20260504194206 21 192 4.8 16.1 0.00 0.00 0.00 55 1007.6
20260504193703 21 228 12.9 20.9 0.00 0.00 0.00 56 1007.9
20260504193201 22 184 8.0 22.5 0.00 0.00 0.00 55 1008.1
20260504192659 22 176 9.7 12.9 0.00 0.00 0.00 54 1008.1
20260504192156 22 187 9.7 16.1 0.00 0.00 0.00 57 1008.0
20260504191655 21 213 3.2 16.1 0.00 0.00 0.00 58 1007.8
20260504191150 22 216 4.8 11.3 0.00 0.00 0.00 57 1007.8
20260504190646 21 250 14.5 17.7 0.00 0.00 0.00 56 1007.8
20260504190143 21 222 6.4 20.9 0.00 0.00 0.00 59 1008.0
20260504185639 21 198 4.8 11.3 0.00 0.00 0.00 60 1008.0
20260504185136 21 218 11.3 12.9 0.00 0.00 0.00 57 1008.1
20260504184632 21 228 8.0 24.1 0.00 0.00 0.00 57 1008.3
20260504184127 21 190 6.4 14.5 0.00 0.00 0.00 59 1008.3
20260504183625 21 214 1.6 9.7 0.00 0.00 0.00 61 1008.1
20260504183122 21 191 1.6 14.5 0.00 0.00 0.00 60 1008.2
20260504182620 21 183 6.4 17.7 0.00 0.00 0.00 61 1008.3
20260504182117 20 233 6.4 12.9 0.00 0.00 0.00 61 1008.6
20260504181614 20 228 12.9 16.1 0.00 0.00 0.00 58 1008.6
20260504181112 20 199 8.0 17.7 0.00 0.00 0.00 59 1008.6
20260504180611 20 220 11.3 20.9 0.00 0.00 0.00 61 1008.7
20260504180109 20 192 9.7 22.5 0.00 0.00 0.00 61 1008.5
20260504175606 20 109 3.2 11.3 0.00 0.00 0.00 61 1008.7
20260504175103 21 149 1.6 14.5 0.00 0.00 0.00 60 1008.6
20260504174601 20 207 3.2 6.4 0.00 0.00 0.00 58 1008.5
20260504174057 20 187 1.6 12.9 0.00 0.00 0.00 61 1008.6
20260504173554 20 202 8.0 16.1 0.00 0.00 0.00 64 1008.7
20260504173052 20 224 6.4 14.5 0.00 0.00 0.00 64 1008.7
20260504172548 20 202 6.4 11.3 0.00 0.00 0.00 67 1008.7
20260504172044 19 199 1.6 14.5 0.00 0.00 0.00 68 1008.8
20260504171541 20 130 6.4 20.9 0.00 0.00 0.00 63 1008.8
20260504171038 19 222 6.4 11.3 0.00 0.00 0.00 63 1009.1
20260504170534 18 195 6.4 9.7 0.00 0.00 0.00 66 1009.0
20260504150918 17 190 3.2 16.1 0.00 0.00 0.00 64 1009.8
20260504150415 16 249 6.4 11.3 0.00 0.00 0.00 68 1009.7
20260504140841 15 195 8.0 14.5 0.00 0.00 0.00 62 1010.4
20260504140337 15 201 6.4 12.9 0.00 0.00 0.00 66 1010.3